Location: General Nathan Twining Observatory
(34.5931°N, 106.8201°W)
Time: 00:29:36
(UTC-06:00)

Daily predictions for brighter satellites

Satellite Brightness Start Highest point End
(mag) Time Altitude Azimuth Time Altitude Azimuth Time Altitude Azimuth
ATLAS 3B R/B 4.4 02:43:21 26° NNW 02:43:21 26° NNW 02:48:23 10° N
CZ-2D R/B 4.1 03:02:25 10° NE 03:05:16 23° ENE 03:05:16 23° ENE
CZ-4C R/B 4.1 03:19:03 22° NNW 03:19:03 22° NNW 03:22:01 10° N
ARIANE 5 R/B 4.0 03:17:38 10° NNE 03:20:44 34° NE 03:20:44 34° NE
Cosmos 2369 Rocket 3.4 03:18:13 10° N 03:23:07 38° NE 03:23:07 38° NE
USA 234 3.3 03:29:23 10° NE 03:35:17 71° N 03:35:17 71° N
SL-16 R/B 2.8 03:37:13 60° E 03:37:27 61° ENE 03:43:32 10° N
Resurs 1-4 Rocket 2.9 03:35:51 10° NNE 03:39:46 47° NE 03:39:46 47° NE
Cosmos 1943 Rocket 4.2 03:41:27 10° N 03:46:05 25° ENE 03:50:39 10° ESE
Centaur D-1A AC-31 3.1 03:29:04 10° WSW 04:00:33 57° S 04:05:45 10° ESE
Cosmos 1709 Rocket 4.0 03:54:38 10° N 04:01:00 77° E 04:02:00 63° SSE
NOSS 3-3 (A) 4.3 03:57:45 10° NW 04:05:20 75° WSW 04:13:18 10° SSE
NOSS 3-3 (C) 4.3 03:57:51 10° NW 04:05:26 76° WSW 04:13:25 10° SSE
CENTAUR R/B 2.6 04:06:29 59° SSE 04:07:12 63° ESE 04:13:43 10° NE
NOSS 3-2 (C) 4.4 04:08:25 33° NW 04:08:25 33° NW 04:14:12 10° NNE
Cosmos 1733 Rocket 3.9 04:05:14 10° N 04:09:12 48° ENE 04:09:12 48° ENE
ATLAS 5 CENTAUR R/B 2.2 04:15:02 55° N 04:15:02 55° N 04:19:19 10° NNE
ARGOS Delta rocket 4.2 04:10:44 10° NNE 04:14:57 53° E 04:14:57 53° E
OAO 3 Copernicus 4.5 04:17:11 66° ESE 04:17:11 66° ESE 04:21:31 10° E
UNKNOWN OBJECT B 4.5 04:18:02 10° N 04:19:46 26° N 04:19:46 26° N
Cosmos 1869 4.2 04:25:52 43° N 04:25:52 43° N 04:28:37 10° N
Cosmos 1933 4.2 04:31:29 40° SE 04:32:22 48° E 04:36:20 10° NNE
CZ-4B R/B 3.8 04:31:21 10° NNE 04:34:51 41° E 04:35:41 35° SE
CZ-2D R/B 3.8 04:35:57 10° N 04:39:47 54° NW 04:39:47 54° NW
Okean O Rocket 1.6 04:36:16 10° NNE 04:40:46 84° ESE 04:41:36 59° S
CZ-2D R/B 3.1 04:42:21 10° N 04:46:36 30° WNW 04:46:36 30° WNW
Cosmos 1302 Rocket 4.1 04:42:50 10° NNW 04:47:53 49° WSW 04:47:53 49° WSW
Cosmos 389 Rocket 3.6 04:51:36 33° NNW 04:51:36 33° NNW 04:53:51 10° N
Atlas Centaur 2 2.9 04:50:12 24° S 04:50:48 25° SSE 04:54:57 10° ESE
Cosmos 1703 Rocket 3.9 04:49:52 25° S 04:52:23 67° E 04:56:50 10° NNE
COSMOS 2406 3.1 04:51:05 36° SSW 04:53:35 83° WNW 04:59:22 10° NNE
Sich 1 Rocket 3.4 04:51:43 10° N 04:56:08 85° W 04:59:22 18° S
Cosmos 2285 Rocket 4.4 04:51:13 10° NNW 04:57:37 66° ENE 05:03:55 10° SSE
Cosmos 1455 4.2 05:01:16 17° NW 05:01:16 17° NW 05:02:43 10° NNW
ARIANE 5 R/B 4.3 04:58:10 10° NNW 05:01:04 17° WNW 05:01:04 17° WNW
SeaSat 1 2.3 05:00:33 10° SSE 05:05:26 70° WSW 05:10:23 10° NNW
Cosmos 2369 Rocket 3.7 05:02:47 10° NW 05:04:45 18° WNW 05:04:45 18° WNW
CZ-4B DEB 4.1 05:04:49 10° N 05:10:17 73° WNW 05:14:24 18° SSW
CZ-4B R/B 3.1 05:06:23 10° N 05:11:38 63° WNW 05:15:06 21° SSW
PSLV R/B 4.4 05:08:18 10° N 05:11:44 34° WNW 05:11:56 34° W
COSMOS 2487 3.3 05:09:43 16° S 05:12:23 50° ESE 05:15:54 10° NNE
Geosat 4.0 05:10:19 10° NNE 05:15:22 81° ESE 05:19:34 15° SSW
PSLV R/B 3.8 05:12:29 10° NNE 05:16:52 73° ESE 05:21:14 10° S
GPS 2-05 Rocket1 3.4 05:16:36 35° SSW 05:17:27 43° SSE 05:20:36 10° E
CZ-2C R/B 3.9 05:16:03 11° S 05:20:12 45° W 05:24:28 10° NNW
Resurs 1-4 Rocket 3.9 05:17:39 10° NNW 05:20:20 14° WNW 05:20:51 14° WNW
SL-16 R/B 3.9 05:22:19 17° W 05:22:19 17° W 05:25:20 10° NW
Cosmos 1943 Rocket 2.6 05:24:41 10° NW 05:29:53 39° WSW 05:35:03 10° S
Okean 1-7 2.9 05:26:21 10° SSW 05:30:36 69° W 05:34:56 10° N
Cosmos 1190 Rocket 4.0 05:26:17 14° SSW 05:30:39 65° WNW 05:35:49 10° N
Cosmos 1408 3.1 05:28:00 10° NNW 05:31:31 39° W 05:35:01 10° SSW
Thor Agena Rocket 3.5 05:27:16 10° S 05:32:19 63° WSW 05:37:29 10° NNW
Okean 2 Rocket 3.1 05:29:04 10° N 05:33:36 88° W 05:38:06 10° S
SL-27 R/B 4.3 05:34:22 16° WNW 05:34:43 16° WNW 05:37:04 10° NNW
ADEOS II 2.1 05:29:55 10° NNE 05:35:11 89° WNW 05:40:27 10° SSW
Meteor 1-31 Rocket 3.6 05:35:29 10° NNE 05:39:12 52° E 05:42:55 10° S
Cosmos 1825 3.0 05:36:19 10° NNW 05:39:39 30° W 05:42:59 10° SSW
Nadezhda 1 Rocket 4.4 05:34:20 10° SSW 05:40:12 43° W 05:46:11 10° N
Cosmos 1992 Rocket 4.1 05:38:07 10° NNW 05:43:11 52° WSW 05:48:14 10° S
BREEZE M DEB (TANK) 4.2 05:44:09 10° SSE 05:45:46 15° ESE 05:48:07 10° ENE
Aureole 3 Rocket 4.4 05:41:02 10° SSW 05:48:11 45° W 05:53:24 10° N
CZ-3 R/B 4.0 05:12:42 10° WNW 05:48:24 42° SW 05:57:24 10° SSE
Cosmos 1954 Rocket 4.1 05:44:56 10° SSW 05:50:05 83° ESE 05:55:18 10° NNE
CSL-04 DEB 4.5 05:46:21 10° N 05:50:34 81° WNW 05:54:52 10° SSW
AVUM R/B 3.5 05:48:12 14° SW 05:50:44 45° WNW 05:53:56 10° N
Cosmos 2181 Rocket 4.1 05:45:41 10° S 05:52:08 83° W 05:58:34 10° N
ADEOS Rocket 3.7 05:47:11 10° N 05:54:47 61° WNW 06:02:17 10° SSW
Cosmos 1782 Rocket 4.1 05:51:30 10° NNW 05:55:28 36° W 05:59:25 10° SSW
PSLV R/B 4.5 05:53:56 10° NW 05:57:12 40° NNE 06:00:25 10° E
CENTAUR R/B 3.9 05:53:41 10° W 05:58:26 23° NW 06:03:42 10° N
Cosmos 1656 Rocket 3.8 05:55:54 10° NW 06:01:02 45° WSW 06:06:10 10° S
Cosmos 676 Rocket 4.3 06:03:24 10° SW 06:08:23 48° WNW 06:13:25 10° N
Cosmos 2154 Rocket 4.4 06:05:20 10° NNW 06:11:16 44° W 06:17:12 10° SSW
Timation 2 Rocket 4.2 06:07:48 10° SSW 06:14:06 75° ESE 06:20:10 10° NNE
Cosmos 1295 Rocket 4.5 06:08:00 10° N 06:14:06 78° W 06:20:16 10° S
COSMO-SKYMED 1 3.5 06:10:31 10° SSE 06:14:44 55° ENE 06:18:59 10° N
